DateTimeUTC,F1_A11,F1_S11,BsB_S11,BsG_S11,BsR_S11,BbsB_S11,BbsG_S11,BbsR_S11,BaB_A11,BaG_A11,BaR_A11,Tu_S11,T_S11,Uu_S11,U_S11,P_S11,T1_A11
2021-10-18T08:00:00Z,00000200,21000000,,,,,,,0000.30,-000.13,0000.19,16.8,24.1,,00.0,0670.5,30.9
2021-10-18T08:01:00Z,00000200,21000000,,,,,,,0000.63,0000.88,0000.29,16.8,24.1,,00.0,0670.5,30.9
2021-10-18T08:02:00Z,00000200,21000000,,,,,,,-000.06,-000.44,0000.12,16.8,24.1,,00.0,0670.5,30.9
2021-10-18T08:03:00Z,00000200,61000000,,,,,,,0000.65,0000.77,0000.30,16.8,24.1,,00.0,0670.5,30.9
2021-10-18T08:04:00Z,00000200,41000000,0002.52,0001.48,0001.14,0000.58,0000.30,0000.22,0000.64,0000.90,0000.20,17.0,23.8,,00.0,0671.4,30.9
2021-10-18T08:05:00Z,00000200,01000000,0001.99,0001.58,0001.04,-000.05,0000.39,-000.06,0000.08,-000.09,0000.50,17.0,23.8,,00.0,0671.5,30.9
2021-10-18T08:06:00Z,00000200,01000000,0001.61,0001.45,0001.18,0000.50,0000.65,0000.14,0000.99,0000.71,0000.54,17.1,23.8,,00.0,0671.5,30.9
2021-10-18T08:07:00Z,00000200,01000000,0002.46,0001.92,0001.08,0000.25,0000.70,0000.25,0000.66,0000.84,0000.28,17.1,23.8,,00.0,0671.6,30.9
2021-10-18T08:08:00Z,00000200,01000000,0003.07,0002.44,0001.35,0000.30,0000.20,0000.34,0000.81,0000.24,0000.42,17.1,23.8,,00.0,0671.6,30.9
2021-10-18T08:09:00Z,00000200,01000000,0003.04,0002.14,0001.33,0000.30,0000.26,0000.31,0000.70,0000.88,0000.81,17.1,23.8,,00.0,0671.6,30.9
2021-10-18T08:10:00Z,00000200,01000000,0002.94,0002.19,0001.12,0000.64,0000.59,-000.03,0000.75,0000.79,0000.49,17.2,23.8,,00.0,0671.6,30.9
2021-10-18T08:11:00Z,00000200,01000000,0003.04,0002.41,0001.42,0000.17,0000.45,0000.07,0000.68,0000.71,0000.38,17.2,23.8,,00.0,0671.6,30.9
2021-10-18T08:12:00Z,00000200,01000000,0002.10,0002.66,0001.58,-000.07,0000.44,0000.42,0000.90,0000.80,0000.45,17.2,23.8,,00.0,0671.6,31.0
2021-10-18T08:13:00Z,00000200,01000000,0002.92,0002.41,0001.60,0000.35,0000.37,0000.11,0001.01,0000.13,0000.72,17.2,23.8,,00.0,0671.7,30.9
2021-10-18T08:14:00Z,00000200,01000000,0002.41,0002.14,0001.69,0000.84,0000.36,0000.33,0000.27,0000.76,0000.39,17.2,23.8,,00.0,0671.7,30.9
2021-10-18T08:15:00Z,00000200,01000000,0002.46,0002.24,0001.18,0000.49,0000.23,0000.34,0000.44,0000.39,0000.42,17.1,23.8,,00.0,0671.7,30.9
2021-10-18T08:16:00Z,00000200,01000000,0003.52,0002.67,0001.08,0000.26,0000.23,0000.06,0000.75,0000.81,0000.13,17.2,23.8,,00.0,0671.7,30.9
2021-10-18T08:17:00Z,00000200,01000000,0003.45,0002.39,0001.89,0000.71,0000.36,0000.37,0000.81,0000.73,0000.47,17.1,23.8,,00.0,0671.7,30.9
2021-10-18T08:18:00Z,00000200,01000000,0002.70,0002.90,0001.97,0000.31,0000.46,0000.22,0000.75,0000.87,0000.89,17.1,23.8,,00.0,0671.7,30.9
2021-10-18T08:19:00Z,00000200,01000000,0003.12,0002.86,0001.63,0000.36,0000.49,0000.03,0001.08,0000.87,0000.69,17.2,23.8,,00.0,0671.8,30.9
2021-10-18T08:20:00Z,00000200,01000000,0003.19,0002.90,0002.00,0000.34,0000.20,0000.13,0000.70,0000.90,0000.65,17.2,23.8,,00.0,0671.8,30.9
2021-10-18T08:21:00Z,00000200,01000000,0003.35,0002.72,0001.99,-000.20,0000.44,0000.40,0000.83,0000.54,0000.52,17.2,23.8,,00.0,0671.9,30.9
2021-10-18T08:22:00Z,00000200,01000000,0003.47,0002.51,0002.04,0000.43,0000.53,0000.46,0000.60,0000.86,0000.10,17.2,23.8,,00.0,0671.9,30.9
2021-10-18T08:23:00Z,00000200,01000000,0002.62,0002.48,0001.93,0000.22,0000.30,0000.39,0000.62,0000.29,0000.67,17.2,23.8,,00.0,0671.9,31.0
2021-10-18T08:24:00Z,00000200,01000000,0003.96,0002.44,0001.69,0000.61,0000.29,0000.39,0000.62,0000.50,0000.45,17.2,23.8,,00.0,0671.9,30.9
2021-10-18T08:25:00Z,00000200,01000000,0002.98,0002.64,0001.99,0000.79,0000.49,0000.32,0000.87,0000.56,0000.43,17.2,23.8,,00.0,0671.8,30.9
2021-10-18T08:26:00Z,00000200,01000000,0003.91,0002.63,0001.75,0000.43,0000.19,0000.08,0001.23,0000.92,0000.58,17.2,23.8,,00.0,0671.8,30.9
2021-10-18T08:27:00Z,00000200,01000000,0004.13,0003.13,0001.95,-000.06,0000.37,0000.35,0000.64,0000.95,0000.87,17.1,23.8,,00.0,0671.8,30.9
2021-10-18T08:28:00Z,00000200,01000000,0003.82,0003.15,0002.06,0000.49,0000.30,0000.73,0001.03,0001.12,0000.59,17.0,23.7,,00.0,0671.9,30.8
2021-10-18T08:29:00Z,00000200,01000000,0003.60,0002.90,0001.48,0000.58,0000.38,0000.23,0000.89,0000.33,0000.37,16.9,23.6,,00.0,0671.9,30.8
2021-10-18T08:30:00Z,00000200,01000000,0003.91,0002.76,0002.11,0000.41,0000.16,0000.20,0000.91,0000.59,0000.32,16.8,23.6,,00.0,0671.9,30.8
2021-10-18T08:31:00Z,00000200,01000000,0003.33,0003.15,0002.08,0000.14,0000.25,0000.54,0000.86,0000.89,0001.07,16.8,23.5,,00.0,0671.9,30.8
2021-10-18T08:32:00Z,00000200,01000000,0003.22,0002.19,0001.37,0000.40,0000.49,0000.15,0000.66,0000.59,-000.04,16.8,23.5,,00.0,0671.9,30.8
2021-10-18T08:33:00Z,00000200,01000000,0003.33,0002.96,0001.74,-000.20,0000.40,0000.09,0000.53,0000.58,0000.82,16.9,23.5,,00.0,0671.9,30.9
2021-10-18T08:34:00Z,00000200,01000000,0003.33,0002.46,0001.75,0000.23,0000.47,0000.32,0000.65,0000.77,0000.27,16.9,23.5,,00.0,0672.0,30.9
2021-10-18T08:35:00Z,00000200,01000000,0003.31,0002.86,0001.58,0000.72,0000.57,0000.35,0000.95,0000.22,0000.57,16.9,23.6,,00.0,0672.0,30.9
2021-10-18T08:36:00Z,00000200,01000000,0003.56,0002.37,0001.62,0000.48,0000.58,0000.46,0000.32,0001.21,0000.52,16.9,23.6,,00.0,0672.0,30.9
2021-10-18T08:37:00Z,00000200,01000000,0003.07,0002.87,0001.53,0000.85,0000.73,0000.40,0000.65,0000.36,0000.60,16.9,23.6,,00.0,0671.9,30.9
2021-10-18T08:38:00Z,00000200,01000000,0002.61,0002.49,0001.51,-000.13,0000.53,0000.44,0000.94,0000.77,0000.03,16.9,23.5,,00.0,0671.9,30.9
2021-10-18T08:39:00Z,00000200,01000000,0003.98,0002.96,0001.79,0000.91,0000.52,0000.52,0001.18,0001.10,0001.04,17.0,23.6,,00.0,0671.9,30.9
2021-10-18T08:40:00Z,00000200,01000000,0003.32,0002.65,0002.22,0000.24,0000.55,0000.52,0000.43,0000.57,0000.24,17.0,23.6,,00.0,0671.9,30.9
2021-10-18T08:41:00Z,00000200,01000000,0003.66,0003.12,0001.89,0000.66,0000.27,-000.04,0001.18,0000.85,0001.06,17.0,23.6,,00.0,0671.9,30.9
2021-10-18T08:42:00Z,00000200,01000000,0003.42,0003.26,0001.76,0000.80,0001.05,0000.00,0001.32,0001.14,0000.67,17.0,23.6,,00.0,0671.9,30.9
2021-10-18T08:43:00Z,00000200,01000000,0003.93,0002.67,0001.75,0000.86,0000.64,0000.04,0000.77,0000.63,0000.62,17.0,23.6,,00.0,0671.9,30.9
2021-10-18T08:44:00Z,00000200,01000000,0004.18,0002.98,0001.84,0000.47,0000.42,0000.37,0000.53,0000.91,0000.25,17.0,23.6,,00.0,0671.9,30.9
2021-10-18T08:45:00Z,00000200,01000000,0003.76,0003.20,0001.84,0000.19,0000.59,0000.50,0001.34,0000.86,0000.61,17.0,23.6,,00.0,0671.9,30.9
2021-10-18T08:46:00Z,00000200,01000000,0004.23,0002.81,0001.76,0000.22,0000.73,0000.54,0001.25,0000.98,0001.07,17.0,23.6,,00.0,0671.9,30.9
2021-10-18T08:47:00Z,00000200,01000000,0003.60,0002.73,0001.92,-000.32,0000.40,0000.41,0000.88,0000.90,0000.55,17.0,23.6,,00.0,0672.0,30.9
2021-10-18T08:48:00Z,00000200,01000000,0002.85,0002.85,0001.64,0000.41,0000.45,-000.03,0000.62,0000.67,0000.95,17.0,23.6,,00.0,0672.0,30.9
2021-10-18T08:49:00Z,00000200,01000000,0003.61,0002.93,0001.67,-000.16,0000.25,0000.15,0001.32,0001.02,0000.57,17.1,23.6,,00.0,0672.0,30.9
2021-10-18T08:50:00Z,00000200,01000000,0003.27,0002.84,0001.98,-000.23,0000.68,0000.19,0001.89,0002.01,0001.48,17.1,23.7,,00.0,0672.0,30.9
2021-10-18T08:51:00Z,00000200,01000000,0004.03,0002.66,0001.62,0000.26,0000.34,0000.10,0002.50,0002.27,0001.86,17.1,23.7,,00.0,0672.0,30.9
2021-10-18T08:52:00Z,00000200,01000000,0004.44,0003.04,0002.09,0001.05,0000.54,0000.12,0002.86,0002.47,0002.04,17.1,23.7,,00.0,0672.1,30.9
2021-10-18T08:53:00Z,00000200,01000000,0004.07,0002.99,0001.96,0000.78,0000.23,0000.14,0003.23,0002.98,0002.12,17.1,23.7,,00.0,0672.1,30.9
2021-10-18T08:54:00Z,00000200,01000000,0003.66,0002.70,0001.66,0000.24,0000.54,0000.35,0001.24,0000.97,0001.25,17.1,23.7,,00.0,0672.1,30.9
2021-10-18T08:55:00Z,00000200,01000000,0003.86,0002.66,0002.10,0000.30,0000.60,0000.39,0000.79,0001.04,0000.33,17.1,23.7,,00.0,0672.1,30.9
2021-10-18T08:56:00Z,00000200,01000000,0004.48,0002.73,0001.64,0000.60,0000.49,0000.37,0001.17,0000.86,0000.22,17.1,23.7,,00.0,0672.0,30.9
2021-10-18T08:57:00Z,00000200,41000000,,,,,,,0000.29,0000.42,0000.65,17.1,23.7,,00.0,0672.1,30.9
2021-10-18T08:58:00Z,00000200,61000000,,,,,,,0000.07,-000.28,-000.03,16.6,23.8,,00.0,0671.0,30.9
2021-10-18T08:59:00Z,00000200,21000000,,,,,,,0000.19,0000.17,0000.01,16.5,23.9,,00.0,0671.0,30.8
